owner,sensor,date,latitude,longitude,vertical_datum,sea_water_practical_salinity,qcFlag 
NERRS,ioos:station:NOAA.NERRS:gndbcwq:1,2016-09-02T19:45:00Z,30.3836,-88.4364,0.94,21.0,1111122 
NERRS,ioos:station:NOAA.NERRS:gndbcwq:1,2016-09-02T20:45:00Z,30.3836,-88.4364,0.88,19.8,1111122 
NERRS,ioos:station:NOAA.NERRS:gndbcwq:1,2016-09-02T21:45:00Z,30.3836,-88.4364,0.81,19.2,1111122 
NERRS,ioos:station:NOAA.NERRS:gndbcwq:1,2016-09-02T22:45:00Z,30.3836,-88.4364,0.76,18.6,1111122 
NERRS,ioos:station:NOAA.NERRS:gndbcwq:1,2016-09-02T23:45:00Z,30.3836,-88.4364,0.73,17.7,1111122 
NERRS,ioos:station:NOAA.NERRS:gndbcwq:1,2016-09-03T00:45:00Z,30.3836,-88.4364,0.74,16.6,1111122 
NERRS,ioos:station:NOAA.NERRS:gndbcwq:1,2016-09-03T01:45:00Z,30.3836,-88.4364,0.78,17.0,1111122 
NERRS,ioos:station:NOAA.NERRS:gndbcwq:1,2016-09-03T02:45:00Z,30.3836,-88.4364,0.81,17.4,1111122 
NERRS,ioos:station:NOAA.NERRS:gndbcwq:1,2016-09-03T03:45:00Z,30.3836,-88.4364,0.8,17.2,1111122 
NERRS,ioos:station:NOAA.NERRS:gndbcwq:1,2016-09-03T04:45:00Z,30.3836,-88.4364,0.78,16.1,1111122 
NERRS,ioos:station:NOAA.NERRS:gndbcwq:1,2016-09-03T05:45:00Z,30.3836,-88.4364,0.77,16.2,1111122 
NERRS,ioos:station:NOAA.NERRS:gndbcwq:1,2016-09-03T06:45:00Z,30.3836,-88.4364,0.79,17.1,1111122 
NERRS,ioos:station:NOAA.NERRS:gndbcwq:1,2016-09-03T07:45:00Z,30.3836,-88.4364,0.81,17.3,1111122 
NERRS,ioos:station:NOAA.NERRS:gndbcwq:1,2016-09-03T08:45:00Z,30.3836,-88.4364,0.8,17.2,1111122 
NERRS,ioos:station:NOAA.NERRS:gndbcwq:1,2016-09-03T09:45:00Z,30.3836,-88.4364,0.76,16.4,1111122 
NERRS,ioos:station:NOAA.NERRS:gndbcwq:1,2016-09-03T10:45:00Z,30.3836,-88.4364,0.76,15.7,1111122 
NERRS,ioos:station:NOAA.NERRS:gndbcwq:1,2016-09-03T11:45:00Z,30.3836,-88.4364,0.79,16.3,1111122 
NERRS,ioos:station:NOAA.NERRS:gndbcwq:1,2016-09-03T12:45:00Z,30.3836,-88.4364,0.83,16.8,1111122 
NERRS,ioos:station:NOAA.NERRS:gndbcwq:1,2016-09-03T13:45:00Z,30.3836,-88.4364,0.88,18.0,1111122 
NERRS,ioos:station:NOAA.NERRS:gndbcwq:1,2016-09-03T14:45:00Z,30.3836,-88.4364,0.91,18.6,1111122 
NERRS,ioos:station:NOAA.NERRS:gndbcwq:1,2016-09-03T15:45:00Z,30.3836,-88.4364,0.94,19.5,1111122 
NERRS,ioos:station:NOAA.NERRS:gndbcwq:1,2016-09-03T16:45:00Z,30.3836,-88.4364,0.88,19.3,1111122 
NERRS,ioos:station:NOAA.NERRS:gndbcwq:1,2016-09-03T17:45:00Z,30.3836,-88.4364,0.85,18.6,1111122 
NERRS,ioos:station:NOAA.NERRS:gndbcwq:1,2016-09-03T18:45:00Z,30.3836,-88.4364,0.84,17.8,1111122 
NERRS,ioos:station:NOAA.NERRS:gndbcwq:1,2016-09-03T19:45:00Z,30.3836,-88.4364,0.86,18.5,1111122 
NERRS,ioos:station:NOAA.NERRS:gndbcwq:1,2016-09-03T20:45:00Z,30.3836,-88.4364,0.84,18.6,1111122 
NERRS,ioos:station:NOAA.NERRS:gndbcwq:1,2016-09-03T21:45:00Z,30.3836,-88.4364,0.8,17.6,1111122 
NERRS,ioos:station:NOAA.NERRS:gndbcwq:1,2016-09-03T22:45:00Z,30.3836,-88.4364,0.78,16.0,1111122 
NERRS,ioos:station:NOAA.NERRS:gndbcwq:1,2016-09-03T23:45:00Z,30.3836,-88.4364,0.77,16.1,1111122 
NERRS,ioos:station:NOAA.NERRS:gndbcwq:1,2016-09-04T00:45:00Z,30.3836,-88.4364,0.76,14.5,1111122 
NERRS,ioos:station:NOAA.NERRS:gndbcwq:1,2016-09-04T01:45:00Z,30.3836,-88.4364,0.77,15.7,1111122 
NERRS,ioos:station:NOAA.NERRS:gndbcwq:1,2016-09-04T02:45:00Z,30.3836,-88.4364,0.83,16.2,1111122 
NERRS,ioos:station:NOAA.NERRS:gndbcwq:1,2016-09-04T03:45:00Z,30.3836,-88.4364,0.86,17.3,1111122 
NERRS,ioos:station:NOAA.NERRS:gndbcwq:1,2016-09-04T04:45:00Z,30.3836,-88.4364,0.85,17.4,1111122 
NERRS,ioos:station:NOAA.NERRS:gndbcwq:1,2016-09-04T05:45:00Z,30.3836,-88.4364,0.8,15.8,1111122 
NERRS,ioos:station:NOAA.NERRS:gndbcwq:1,2016-09-04T06:45:00Z,30.3836,-88.4364,0.79,15.5,1111122 
NERRS,ioos:station:NOAA.NERRS:gndbcwq:1,2016-09-04T07:45:00Z,30.3836,-88.4364,0.79,16.3,1111122 
NERRS,ioos:station:NOAA.NERRS:gndbcwq:1,2016-09-04T08:45:00Z,30.3836,-88.4364,0.8,16.6,1111122 
NERRS,ioos:station:NOAA.NERRS:gndbcwq:1,2016-09-04T09:45:00Z,30.3836,-88.4364,0.78,16.2,1111122 
NERRS,ioos:station:NOAA.NERRS:gndbcwq:1,2016-09-04T10:45:00Z,30.3836,-88.4364,0.74,13.3,1111122 
NERRS,ioos:station:NOAA.NERRS:gndbcwq:1,2016-09-04T11:45:00Z,30.3836,-88.4364,0.71,12.7,1111122 
NERRS,ioos:station:NOAA.NERRS:gndbcwq:1,2016-09-04T12:45:00Z,30.3836,-88.4364,0.72,15.0,1111122 
NERRS,ioos:station:NOAA.NERRS:gndbcwq:1,2016-09-04T13:45:00Z,30.3836,-88.4364,0.78,15.4,1111122 
NERRS,ioos:station:NOAA.NERRS:gndbcwq:1,2016-09-04T14:45:00Z,30.3836,-88.4364,0.84,15.9,1111122 
NERRS,ioos:station:NOAA.NERRS:gndbcwq:1,2016-09-04T15:45:00Z,30.3836,-88.4364,0.86,16.6,1111122 
NERRS,ioos:station:NOAA.NERRS:gndbcwq:1,2016-09-04T16:45:00Z,30.3836,-88.4364,0.87,16.9,1111122 
NERRS,ioos:station:NOAA.NERRS:gndbcwq:1,2016-09-04T17:45:00Z,30.3836,-88.4364,0.83,16.5,1111122 
NERRS,ioos:station:NOAA.NERRS:gndbcwq:1,2016-09-04T18:45:00Z,30.3836,-88.4364,0.77,15.3,1111122 
NERRS,ioos:station:NOAA.NERRS:gndbcwq:1,2016-09-04T19:45:00Z,30.3836,-88.4364,0.75,14.5,1111122 
NERRS,ioos:station:NOAA.NERRS:gndbcwq:1,2016-09-04T20:45:00Z,30.3836,-88.4364,0.81,14.7,1111122 
NERRS,ioos:station:NOAA.NERRS:gndbcwq:1,2016-09-04T21:45:00Z,30.3836,-88.4364,0.8,15.2,1111122 
NERRS,ioos:station:NOAA.NERRS:gndbcwq:1,2016-09-04T22:45:00Z,30.3836,-88.4364,0.78,14.0,1111122 
NERRS,ioos:station:NOAA.NERRS:gndbcwq:1,2016-09-04T23:45:00Z,30.3836,-88.4364,0.73,12.6,1111122 
NERRS,ioos:station:NOAA.NERRS:gndbcwq:1,2016-09-05T00:45:00Z,30.3836,-88.4364,0.71,11.3,1111122 
NERRS,ioos:station:NOAA.NERRS:gndbcwq:1,2016-09-05T01:45:00Z,30.3836,-88.4364,0.74,13.8,1111122 
NERRS,ioos:station:NOAA.NERRS:gndbcwq:1,2016-09-05T02:45:00Z,30.3836,-88.4364,0.8,13.9,1111122 
NERRS,ioos:station:NOAA.NERRS:gndbcwq:1,2016-09-05T03:45:00Z,30.3836,-88.4364,0.85,14.8,1111122 
NERRS,ioos:station:NOAA.NERRS:gndbcwq:1,2016-09-05T04:45:00Z,30.3836,-88.4364,0.86,15.7,1111122 
NERRS,ioos:station:NOAA.NERRS:gndbcwq:1,2016-09-05T05:45:00Z,30.3836,-88.4364,0.82,13.5,1111122 
NERRS,ioos:station:NOAA.NERRS:gndbcwq:1,2016-09-05T06:45:00Z,30.3836,-88.4364,0.78,12.1,1111122 
NERRS,ioos:station:NOAA.NERRS:gndbcwq:1,2016-09-05T07:45:00Z,30.3836,-88.4364,0.8,14.1,1111122 
NERRS,ioos:station:NOAA.NERRS:gndbcwq:1,2016-09-05T08:45:00Z,30.3836,-88.4364,0.84,15.3,1111122 
NERRS,ioos:station:NOAA.NERRS:gndbcwq:1,2016-09-05T09:45:00Z,30.3836,-88.4364,0.84,15.9,1111122 
NERRS,ioos:station:NOAA.NERRS:gndbcwq:1,2016-09-05T10:45:00Z,30.3836,-88.4364,0.8,13.0,1111122 
NERRS,ioos:station:NOAA.NERRS:gndbcwq:1,2016-09-05T11:45:00Z,30.3836,-88.4364,0.77,12.5,1111122 
NERRS,ioos:station:NOAA.NERRS:gndbcwq:1,2016-09-05T12:45:00Z,30.3836,-88.4364,0.73,10.4,1111122 
NERRS,ioos:station:NOAA.NERRS:gndbcwq:1,2016-09-05T13:45:00Z,30.3836,-88.4364,0.76,12.8,1111122 
NERRS,ioos:station:NOAA.NERRS:gndbcwq:1,2016-09-05T14:45:00Z,30.3836,-88.4364,0.82,13.8,1111122 
NERRS,ioos:station:NOAA.NERRS:gndbcwq:1,2016-09-05T15:45:00Z,30.3836,-88.4364,0.83,14.4,1111122 
NERRS,ioos:station:NOAA.NERRS:gndbcwq:1,2016-09-05T16:45:00Z,30.3836,-88.4364,0.84,14.4,1111122 
NERRS,ioos:station:NOAA.NERRS:gndbcwq:1,2016-09-05T17:45:00Z,30.3836,-88.4364,0.82,14.2,1111122 
NERRS,ioos:station:NOAA.NERRS:gndbcwq:1,2016-09-05T18:45:00Z,30.3836,-88.4364,0.79,11.1,1111122 
NERRS,ioos:station:NOAA.NERRS:gndbcwq:1,2016-09-05T19:45:00Z,30.3836,-88.4364,0.79,13.2,1111122 
NERRS,ioos:station:NOAA.NERRS:gndbcwq:1,2016-09-05T20:45:00Z,30.3836,-88.4364,0.81,13.6,1111122 
NERRS,ioos:station:NOAA.NERRS:gndbcwq:1,2016-09-05T21:45:00Z,30.3836,-88.4364,0.79,12.2,1111122 
NERRS,ioos:station:NOAA.NERRS:gndbcwq:1,2016-09-05T22:45:00Z,30.3836,-88.4364,0.74,7.9,1111122 
NERRS,ioos:station:NOAA.NERRS:gndbcwq:1,2016-09-05T23:45:00Z,30.3836,-88.4364,0.69,7.4,1111122 
NERRS,ioos:station:NOAA.NERRS:gndbcwq:1,2016-09-06T00:45:00Z,30.3836,-88.4364,0.71,11.1,1111122 
NERRS,ioos:station:NOAA.NERRS:gndbcwq:1,2016-09-06T01:45:00Z,30.3836,-88.4364,0.77,11.6,1111122 
NERRS,ioos:station:NOAA.NERRS:gndbcwq:1,2016-09-06T02:45:00Z,30.3836,-88.4364,0.83,12.7,1111122 
NERRS,ioos:station:NOAA.NERRS:gndbcwq:1,2016-09-06T03:45:00Z,30.3836,-88.4364,0.89,14.5,1111122 
NERRS,ioos:station:NOAA.NERRS:gndbcwq:1,2016-09-06T04:45:00Z,30.3836,-88.4364,0.91,16.2,1111122 
NERRS,ioos:station:NOAA.NERRS:gndbcwq:1,2016-09-06T05:45:00Z,30.3836,-88.4364,0.91,17.0,1111122 
NERRS,ioos:station:NOAA.NERRS:gndbcwq:1,2016-09-06T06:45:00Z,30.3836,-88.4364,0.89,16.9,1111122 
NERRS,ioos:station:NOAA.NERRS:gndbcwq:1,2016-09-06T07:45:00Z,30.3836,-88.4364,0.9,17.4,1111122 
NERRS,ioos:station:NOAA.NERRS:gndbcwq:1,2016-09-06T08:45:00Z,30.3836,-88.4364,0.9,18.0,1111122 
NERRS,ioos:station:NOAA.NERRS:gndbcwq:1,2016-09-06T09:45:00Z,30.3836,-88.4364,0.9,18.3,1111122 
NERRS,ioos:station:NOAA.NERRS:gndbcwq:1,2016-09-06T10:45:00Z,30.3836,-88.4364,0.87,18.6,1111122 
NERRS,ioos:station:NOAA.NERRS:gndbcwq:1,2016-09-06T11:45:00Z,30.3836,-88.4364,0.82,15.5,1111122 
NERRS,ioos:station:NOAA.NERRS:gndbcwq:1,2016-09-06T12:45:00Z,30.3836,-88.4364,0.79,8.9,1111122 
NERRS,ioos:station:NOAA.NERRS:gndbcwq:1,2016-09-06T13:45:00Z,30.3836,-88.4364,0.77,7.7,1111122 
NERRS,ioos:station:NOAA.NERRS:gndbcwq:1,2016-09-06T14:45:00Z,30.3836,-88.4364,0.77,11.9,1111122 
NERRS,ioos:station:NOAA.NERRS:gndbcwq:1,2016-09-06T15:45:00Z,30.3836,-88.4364,0.79,13.6,1111122 
NERRS,ioos:station:NOAA.NERRS:gndbcwq:1,2016-09-06T16:45:00Z,30.3836,-88.4364,0.81,14.2,1111122 
NERRS,ioos:station:NOAA.NERRS:gndbcwq:1,2016-09-06T17:45:00Z,30.3836,-88.4364,0.8,14.3,1111122 
NERRS,ioos:station:NOAA.NERRS:gndbcwq:1,2016-09-06T18:45:00Z,30.3836,-88.4364,0.74,7.1,1111122 
NERRS,ioos:station:NOAA.NERRS:gndbcwq:1,2016-09-06T19:45:00Z,30.3836,-88.4364,0.78,12.1,1111122 
NERRS,ioos:station:NOAA.NERRS:gndbcwq:1,2016-09-06T20:45:00Z,30.3836,-88.4364,0.81,12.5,1111122 
NERRS,ioos:station:NOAA.NERRS:gndbcwq:1,2016-09-06T21:45:00Z,30.3836,-88.4364,0.82,14.4,1111122 
NERRS,ioos:station:NOAA.NERRS:gndbcwq:1,2016-09-06T22:45:00Z,30.3836,-88.4364,0.82,13.7,1111122 
NERRS,ioos:station:NOAA.NERRS:gndbcwq:1,2016-09-06T23:45:00Z,30.3836,-88.4364,0.84,14.3,1111122 
NERRS,ioos:station:NOAA.NERRS:gndbcwq:1,2016-09-07T00:45:00Z,30.3836,-88.4364,0.87,11.8,1111122 
NERRS,ioos:station:NOAA.NERRS:gndbcwq:1,2016-09-07T01:45:00Z,30.3836,-88.4364,0.9,13.7,1111122 
NERRS,ioos:station:NOAA.NERRS:gndbcwq:1,2016-09-07T02:45:00Z,30.3836,-88.4364,0.92,16.1,1111122 
NERRS,ioos:station:NOAA.NERRS:gndbcwq:1,2016-09-07T03:45:00Z,30.3836,-88.4364,0.94,16.8,1111122 
NERRS,ioos:station:NOAA.NERRS:gndbcwq:1,2016-09-07T04:45:00Z,30.3836,-88.4364,0.95,17.5,1111122 
NERRS,ioos:station:NOAA.NERRS:gndbcwq:1,2016-09-07T05:45:00Z,30.3836,-88.4364,0.96,18.5,1111122 
NERRS,ioos:station:NOAA.NERRS:gndbcwq:1,2016-09-07T06:45:00Z,30.3836,-88.4364,0.95,18.8,1111122 
NERRS,ioos:station:NOAA.NERRS:gndbcwq:1,2016-09-07T07:45:00Z,30.3836,-88.4364,0.93,19.1,1111122 
NERRS,ioos:station:NOAA.NERRS:gndbcwq:1,2016-09-07T08:45:00Z,30.3836,-88.4364,0.91,17.9,1111122 
NERRS,ioos:station:NOAA.NERRS:gndbcwq:1,2016-09-07T09:45:00Z,30.3836,-88.4364,0.88,17.5,1111122 
NERRS,ioos:station:NOAA.NERRS:gndbcwq:1,2016-09-07T10:45:00Z,30.3836,-88.4364,0.86,15.5,1111122 
NERRS,ioos:station:NOAA.NERRS:gndbcwq:1,2016-09-07T11:45:00Z,30.3836,-88.4364,0.81,8.5,1111122 
NERRS,ioos:station:NOAA.NERRS:gndbcwq:1,2016-09-07T12:45:00Z,30.3836,-88.4364,0.76,6.2,1111122 
NERRS,ioos:station:NOAA.NERRS:gndbcwq:1,2016-09-07T13:45:00Z,30.3836,-88.4364,0.71,6.2,1111122 
NERRS,ioos:station:NOAA.NERRS:gndbcwq:1,2016-09-07T14:45:00Z,30.3836,-88.4364,0.71,8.8,1111122 
NERRS,ioos:station:NOAA.NERRS:gndbcwq:1,2016-09-07T15:45:00Z,30.3836,-88.4364,0.72,11.3,1111122 
NERRS,ioos:station:NOAA.NERRS:gndbcwq:1,2016-09-07T17:45:00Z,30.3836,-88.4364,0.7,10.4,1111122 
NERRS,ioos:station:NOAA.NERRS:gndbcwq:1,2016-09-07T18:45:00Z,30.3836,-88.4364,0.71,11.7,1111122 
NERRS,ioos:station:NOAA.NERRS:gndbcwq:1,2016-09-07T19:45:00Z,30.3836,-88.4364,0.71,10.6,1111122 
NERRS,ioos:station:NOAA.NERRS:gndbcwq:1,2016-09-07T20:45:00Z,30.3836,-88.4364,0.7,8.1,1111122 
NERRS,ioos:station:NOAA.NERRS:gndbcwq:1,2016-09-07T21:45:00Z,30.3836,-88.4364,0.71,7.7,1111122 
NERRS,ioos:station:NOAA.NERRS:gndbcwq:1,2016-09-07T22:45:00Z,30.3836,-88.4364,0.74,8.8,1111122 
NERRS,ioos:station:NOAA.NERRS:gndbcwq:1,2016-09-07T23:45:00Z,30.3836,-88.4364,0.77,9.4,1111122 
NERRS,ioos:station:NOAA.NERRS:gndbcwq:1,2016-09-08T00:45:00Z,30.3836,-88.4364,0.8,9.9,1111122 
NERRS,ioos:station:NOAA.NERRS:gndbcwq:1,2016-09-08T01:45:00Z,30.3836,-88.4364,0.83,11.5,1111122 
NERRS,ioos:station:NOAA.NERRS:gndbcwq:1,2016-09-08T02:45:00Z,30.3836,-88.4364,0.85,11.9,1111122 
NERRS,ioos:station:NOAA.NERRS:gndbcwq:1,2016-09-08T03:45:00Z,30.3836,-88.4364,0.89,12.7,1111122 
NERRS,ioos:station:NOAA.NERRS:gndbcwq:1,2016-09-08T04:45:00Z,30.3836,-88.4364,0.92,14.9,1111122 
NERRS,ioos:station:NOAA.NERRS:gndbcwq:1,2016-09-08T05:45:00Z,30.3836,-88.4364,0.95,17.7,1111122 
NERRS,ioos:station:NOAA.NERRS:gndbcwq:1,2016-09-08T06:45:00Z,30.3836,-88.4364,0.95,19.1,1111122 
NERRS,ioos:station:NOAA.NERRS:gndbcwq:1,2016-09-08T07:45:00Z,30.3836,-88.4364,0.94,19.9,1111122 
NERRS,ioos:station:NOAA.NERRS:gndbcwq:1,2016-09-08T08:45:00Z,30.3836,-88.4364,0.91,20.2,1111122 
NERRS,ioos:station:NOAA.NERRS:gndbcwq:1,2016-09-08T09:45:00Z,30.3836,-88.4364,0.86,19.0,1111122 
NERRS,ioos:station:NOAA.NERRS:gndbcwq:1,2016-09-08T10:45:00Z,30.3836,-88.4364,0.83,16.8,1111122 
NERRS,ioos:station:NOAA.NERRS:gndbcwq:1,2016-09-08T11:45:00Z,30.3836,-88.4364,0.81,14.5,1111122 
NERRS,ioos:station:NOAA.NERRS:gndbcwq:1,2016-09-08T12:45:00Z,30.3836,-88.4364,0.78,11.8,1111122 
NERRS,ioos:station:NOAA.NERRS:gndbcwq:1,2016-09-08T13:45:00Z,30.3836,-88.4364,0.73,7.0,1111122 
NERRS,ioos:station:NOAA.NERRS:gndbcwq:1,2016-09-08T14:45:00Z,30.3836,-88.4364,0.69,8.0,1111122 
NERRS,ioos:station:NOAA.NERRS:gndbcwq:1,2016-09-08T15:45:00Z,30.3836,-88.4364,0.68,9.8,1111122 
NERRS,ioos:station:NOAA.NERRS:gndbcwq:1,2016-09-08T16:45:00Z,30.3836,-88.4364,0.64,7.9,1111122 
NERRS,ioos:station:NOAA.NERRS:gndbcwq:1,2016-09-08T17:45:00Z,30.3836,-88.4364,0.66,13.5,1111122 
NERRS,ioos:station:NOAA.NERRS:gndbcwq:1,2016-09-08T18:45:00Z,30.3836,-88.4364,0.66,11.5,1111122 
NERRS,ioos:station:NOAA.NERRS:gndbcwq:1,2016-09-08T19:45:00Z,30.3836,-88.4364,0.66,9.8,1111122 
NERRS,ioos:station:NOAA.NERRS:gndbcwq:1,2016-09-08T20:45:00Z,30.3836,-88.4364,0.67,8.2,1111122 
NERRS,ioos:station:NOAA.NERRS:gndbcwq:1,2016-09-08T21:45:00Z,30.3836,-88.4364,0.68,8.3,1111122 
NERRS,ioos:station:NOAA.NERRS:gndbcwq:1,2016-09-08T22:45:00Z,30.3836,-88.4364,0.7,9.5,1111122 
NERRS,ioos:station:NOAA.NERRS:gndbcwq:1,2016-09-08T23:45:00Z,30.3836,-88.4364,0.74,8.6,1111122 
NERRS,ioos:station:NOAA.NERRS:gndbcwq:1,2016-09-09T00:45:00Z,30.3836,-88.4364,0.77,9.7,1111122 
NERRS,ioos:station:NOAA.NERRS:gndbcwq:1,2016-09-09T01:45:00Z,30.3836,-88.4364,0.82,11.5,1111122 
NERRS,ioos:station:NOAA.NERRS:gndbcwq:1,2016-09-09T02:45:00Z,30.3836,-88.4364,0.86,14.4,1111122 
NERRS,ioos:station:NOAA.NERRS:gndbcwq:1,2016-09-09T03:45:00Z,30.3836,-88.4364,0.9,17.2,1111122 
NERRS,ioos:station:NOAA.NERRS:gndbcwq:1,2016-09-09T04:45:00Z,30.3836,-88.4364,0.93,19.6,1111122 
NERRS,ioos:station:NOAA.NERRS:gndbcwq:1,2016-09-09T05:45:00Z,30.3836,-88.4364,0.95,20.7,1111122 
NERRS,ioos:station:NOAA.NERRS:gndbcwq:1,2016-09-09T06:45:00Z,30.3836,-88.4364,0.96,21.2,1111122 
NERRS,ioos:station:NOAA.NERRS:gndbcwq:1,2016-09-09T07:45:00Z,30.3836,-88.4364,0.98,21.6,1111122 
NERRS,ioos:station:NOAA.NERRS:gndbcwq:1,2016-09-09T08:45:00Z,30.3836,-88.4364,0.98,21.7,1111122 
NERRS,ioos:station:NOAA.NERRS:gndbcwq:1,2016-09-09T09:45:00Z,30.3836,-88.4364,0.95,21.6,1111122 
NERRS,ioos:station:NOAA.NERRS:gndbcwq:1,2016-09-09T10:45:00Z,30.3836,-88.4364,0.9,21.1,1111122 
NERRS,ioos:station:NOAA.NERRS:gndbcwq:1,2016-09-09T11:45:00Z,30.3836,-88.4364,0.86,20.0,1111122 
NERRS,ioos:station:NOAA.NERRS:gndbcwq:1,2016-09-09T12:45:00Z,30.3836,-88.4364,0.83,18.2,1111122 
NERRS,ioos:station:NOAA.NERRS:gndbcwq:1,2016-09-09T13:45:00Z,30.3836,-88.4364,0.79,17.0,1111122 
NERRS,ioos:station:NOAA.NERRS:gndbcwq:1,2016-09-09T14:45:00Z,30.3836,-88.4364,0.75,13.7,1111122 
NERRS,ioos:station:NOAA.NERRS:gndbcwq:1,2016-09-09T15:45:00Z,30.3836,-88.4364,0.69,8.8,1111122 
NERRS,ioos:station:NOAA.NERRS:gndbcwq:1,2016-09-09T16:45:00Z,30.3836,-88.4364,0.64,7.7,1111122 
NERRS,ioos:station:NOAA.NERRS:gndbcwq:1,2016-09-09T17:45:00Z,30.3836,-88.4364,0.62,10.0,1111122 
NERRS,ioos:station:NOAA.NERRS:gndbcwq:1,2016-09-09T18:45:00Z,30.3836,-88.4364,0.63,11.5,1111122 
NERRS,ioos:station:NOAA.NERRS:gndbcwq:1,2016-09-09T19:45:00Z,30.3836,-88.4364,0.65,11.7,1111122 
NERRS,ioos:station:NOAA.NERRS:gndbcwq:1,2016-09-09T20:45:00Z,30.3836,-88.4364,0.66,11.3,1111122 
NERRS,ioos:station:NOAA.NERRS:gndbcwq:1,2016-09-09T21:45:00Z,30.3836,-88.4364,0.68,11.0,1111122 
NERRS,ioos:station:NOAA.NERRS:gndbcwq:1,2016-09-09T22:45:00Z,30.3836,-88.4364,0.69,10.8,1111122 
NERRS,ioos:station:NOAA.NERRS:gndbcwq:1,2016-09-09T23:45:00Z,30.3836,-88.4364,0.72,10.5,1111122 
NERRS,ioos:station:NOAA.NERRS:gndbcwq:1,2016-09-10T02:45:00Z,30.3836,-88.4364,0.84,14.9,1111122 
NERRS,ioos:station:NOAA.NERRS:gndbcwq:1,2016-09-10T03:45:00Z,30.3836,-88.4364,0.88,16.7,1111122 
NERRS,ioos:station:NOAA.NERRS:gndbcwq:1,2016-09-10T04:45:00Z,30.3836,-88.4364,0.91,18.5,1111122 
NERRS,ioos:station:NOAA.NERRS:gndbcwq:1,2016-09-10T05:45:00Z,30.3836,-88.4364,0.95,20.1,1111122 
NERRS,ioos:station:NOAA.NERRS:gndbcwq:1,2016-09-10T06:45:00Z,30.3836,-88.4364,0.98,21.4,1111122 
NERRS,ioos:station:NOAA.NERRS:gndbcwq:1,2016-09-10T07:45:00Z,30.3836,-88.4364,1.01,22.0,1111122 
NERRS,ioos:station:NOAA.NERRS:gndbcwq:1,2016-09-10T08:45:00Z,30.3836,-88.4364,1.01,22.1,1111122 
NERRS,ioos:station:NOAA.NERRS:gndbcwq:1,2016-09-10T09:45:00Z,30.3836,-88.4364,0.98,22.1,1111122 
NERRS,ioos:station:NOAA.NERRS:gndbcwq:1,2016-09-10T10:45:00Z,30.3836,-88.4364,0.94,21.5,1111122 
NERRS,ioos:station:NOAA.NERRS:gndbcwq:1,2016-09-10T11:45:00Z,30.3836,-88.4364,0.9,20.7,1111122 
NERRS,ioos:station:NOAA.NERRS:gndbcwq:1,2016-09-10T12:45:00Z,30.3836,-88.4364,0.87,18.3,1111122 
NERRS,ioos:station:NOAA.NERRS:gndbcwq:1,2016-09-10T13:45:00Z,30.3836,-88.4364,0.83,16.3,1111122 
NERRS,ioos:station:NOAA.NERRS:gndbcwq:1,2016-09-10T14:45:00Z,30.3836,-88.4364,0.79,13.0,1111122 
NERRS,ioos:station:NOAA.NERRS:gndbcwq:1,2016-09-10T15:45:00Z,30.3836,-88.4364,0.73,13.2,1111122 
NERRS,ioos:station:NOAA.NERRS:gndbcwq:1,2016-09-10T16:45:00Z,30.3836,-88.4364,0.68,11.8,1111122 
NERRS,ioos:station:NOAA.NERRS:gndbcwq:1,2016-09-10T17:45:00Z,30.3836,-88.4364,0.65,11.2,1111122 
NERRS,ioos:station:NOAA.NERRS:gndbcwq:1,2016-09-10T18:45:00Z,30.3836,-88.4364,0.61,10.2,1111122 
NERRS,ioos:station:NOAA.NERRS:gndbcwq:1,2016-09-10T19:45:00Z,30.3836,-88.4364,0.63,13.0,1111122 
NERRS,ioos:station:NOAA.NERRS:gndbcwq:1,2016-09-10T20:45:00Z,30.3836,-88.4364,0.64,13.0,1111122 
NERRS,ioos:station:NOAA.NERRS:gndbcwq:1,2016-09-10T21:45:00Z,30.3836,-88.4364,0.64,13.0,1111122 
NERRS,ioos:station:NOAA.NERRS:gndbcwq:1,2016-09-10T22:45:00Z,30.3836,-88.4364,0.65,13.3,1111122 
NERRS,ioos:station:NOAA.NERRS:gndbcwq:1,2016-09-10T23:45:00Z,30.3836,-88.4364,0.66,12.6,1111122 
NERRS,ioos:station:NOAA.NERRS:gndbcwq:1,2016-09-11T00:45:00Z,30.3836,-88.4364,0.73,11.6,1111122 
NERRS,ioos:station:NOAA.NERRS:gndbcwq:1,2016-09-11T01:45:00Z,30.3836,-88.4364,0.8,13.4,1111122 
NERRS,ioos:station:NOAA.NERRS:gndbcwq:1,2016-09-11T02:45:00Z,30.3836,-88.4364,0.84,14.9,1111122 
NERRS,ioos:station:NOAA.NERRS:gndbcwq:1,2016-09-11T03:45:00Z,30.3836,-88.4364,0.87,17.7,1111122 
NERRS,ioos:station:NOAA.NERRS:gndbcwq:1,2016-09-11T04:45:00Z,30.3836,-88.4364,0.86,18.6,1111122 
NERRS,ioos:station:NOAA.NERRS:gndbcwq:1,2016-09-11T05:45:00Z,30.3836,-88.4364,0.84,18.6,1111122 
NERRS,ioos:station:NOAA.NERRS:gndbcwq:1,2016-09-11T06:45:00Z,30.3836,-88.4364,0.84,19.0,1111122 
NERRS,ioos:station:NOAA.NERRS:gndbcwq:1,2016-09-11T07:45:00Z,30.3836,-88.4364,0.88,19.3,1111122 
NERRS,ioos:station:NOAA.NERRS:gndbcwq:1,2016-09-11T08:45:00Z,30.3836,-88.4364,0.93,20.1,1111122 
NERRS,ioos:station:NOAA.NERRS:gndbcwq:1,2016-09-11T09:45:00Z,30.3836,-88.4364,0.94,21.1,1111122 
NERRS,ioos:station:NOAA.NERRS:gndbcwq:1,2016-09-11T10:45:00Z,30.3836,-88.4364,0.89,21.0,1111122 
NERRS,ioos:station:NOAA.NERRS:gndbcwq:1,2016-09-11T11:45:00Z,30.3836,-88.4364,0.86,20.1,1111122 
NERRS,ioos:station:NOAA.NERRS:gndbcwq:1,2016-09-11T12:45:00Z,30.3836,-88.4364,0.84,18.2,1111122 
NERRS,ioos:station:NOAA.NERRS:gndbcwq:1,2016-09-11T13:45:00Z,30.3836,-88.4364,0.83,17.6,1111122 
NERRS,ioos:station:NOAA.NERRS:gndbcwq:1,2016-09-11T14:45:00Z,30.3836,-88.4364,0.8,17.4,1111122 
NERRS,ioos:station:NOAA.NERRS:gndbcwq:1,2016-09-11T15:45:00Z,30.3836,-88.4364,0.75,14.5,1111122 
NERRS,ioos:station:NOAA.NERRS:gndbcwq:1,2016-09-11T16:45:00Z,30.3836,-88.4364,0.68,11.2,1111122 
NERRS,ioos:station:NOAA.NERRS:gndbcwq:1,2016-09-11T17:45:00Z,30.3836,-88.4364,0.59,10.6,1111122 
NERRS,ioos:station:NOAA.NERRS:gndbcwq:1,2016-09-11T18:45:00Z,30.3836,-88.4364,0.55,9.9,1111122 
NERRS,ioos:station:NOAA.NERRS:gndbcwq:1,2016-09-11T19:45:00Z,30.3836,-88.4364,0.56,12.6,1111122 
NERRS,ioos:station:NOAA.NERRS:gndbcwq:1,2016-09-11T20:45:00Z,30.3836,-88.4364,0.55,11.6,1111122 
NERRS,ioos:station:NOAA.NERRS:gndbcwq:1,2016-09-11T21:45:00Z,30.3836,-88.4364,0.55,12.1,1111122 
NERRS,ioos:station:NOAA.NERRS:gndbcwq:1,2016-09-11T22:45:00Z,30.3836,-88.4364,0.58,12.5,1111122 
NERRS,ioos:station:NOAA.NERRS:gndbcwq:1,2016-09-11T23:45:00Z,30.3836,-88.4364,0.61,12.1,1111122 
NERRS,ioos:station:NOAA.NERRS:gndbcwq:1,2016-09-12T00:45:00Z,30.3836,-88.4364,0.63,12.5,1111122 
NERRS,ioos:station:NOAA.NERRS:gndbcwq:1,2016-09-12T01:45:00Z,30.3836,-88.4364,0.62,14.2,1111122 
NERRS,ioos:station:NOAA.NERRS:gndbcwq:1,2016-09-12T02:45:00Z,30.3836,-88.4364,0.65,14.3,1111122 
NERRS,ioos:station:NOAA.NERRS:gndbcwq:1,2016-09-12T03:45:00Z,30.3836,-88.4364,0.71,14.4,1111122 
NERRS,ioos:station:NOAA.NERRS:gndbcwq:1,2016-09-12T04:45:00Z,30.3836,-88.4364,0.68,15.5,1111122 
NERRS,ioos:station:NOAA.NERRS:gndbcwq:1,2016-09-12T05:45:00Z,30.3836,-88.4364,0.73,15.2,1111122 
NERRS,ioos:station:NOAA.NERRS:gndbcwq:1,2016-09-12T06:45:00Z,30.3836,-88.4364,0.76,18.1,1111122 
NERRS,ioos:station:NOAA.NERRS:gndbcwq:1,2016-09-12T07:45:00Z,30.3836,-88.4364,0.81,17.9,1111122 
NERRS,ioos:station:NOAA.NERRS:gndbcwq:1,2016-09-12T08:45:00Z,30.3836,-88.4364,0.88,19.4,1111122 
NERRS,ioos:station:NOAA.NERRS:gndbcwq:1,2016-09-12T09:45:00Z,30.3836,-88.4364,0.91,20.3,1111122 
NERRS,ioos:station:NOAA.NERRS:gndbcwq:1,2016-09-12T10:45:00Z,30.3836,-88.4364,0.89,19.7,1111122 
NERRS,ioos:station:NOAA.NERRS:gndbcwq:1,2016-09-12T11:45:00Z,30.3836,-88.4364,0.85,18.2,1111122 
NERRS,ioos:station:NOAA.NERRS:gndbcwq:1,2016-09-12T12:45:00Z,30.3836,-88.4364,0.82,18.6,1111122 
NERRS,ioos:station:NOAA.NERRS:gndbcwq:1,2016-09-12T13:45:00Z,30.3836,-88.4364,0.8,17.9,1111122 
NERRS,ioos:station:NOAA.NERRS:gndbcwq:1,2016-09-12T14:45:00Z,30.3836,-88.4364,0.77,16.2,1111122 
NERRS,ioos:station:NOAA.NERRS:gndbcwq:1,2016-09-12T15:45:00Z,30.3836,-88.4364,0.74,16.6,1111122 
NERRS,ioos:station:NOAA.NERRS:gndbcwq:1,2016-09-12T16:45:00Z,30.3836,-88.4364,0.71,16.2,1111122 
NERRS,ioos:station:NOAA.NERRS:gndbcwq:1,2016-09-12T17:45:00Z,30.3836,-88.4364,0.6,14.9,1111122 
NERRS,ioos:station:NOAA.NERRS:gndbcwq:1,2016-09-12T18:45:00Z,30.3836,-88.4364,0.54,11.6,1111122 
NERRS,ioos:station:NOAA.NERRS:gndbcwq:1,2016-09-12T19:45:00Z,30.3836,-88.4364,0.54,13.9,1111122 
NERRS,ioos:station:NOAA.NERRS:gndbcwq:1,2016-09-12T20:45:00Z,30.3836,-88.4364,0.46,10.9,1111122 
NERRS,ioos:station:NOAA.NERRS:gndbcwq:1,2016-09-12T21:45:00Z,30.3836,-88.4364,0.46,12.9,1111122 
NERRS,ioos:station:NOAA.NERRS:gndbcwq:1,2016-09-12T22:45:00Z,30.3836,-88.4364,0.56,13.1,1111122 
NERRS,ioos:station:NOAA.NERRS:gndbcwq:1,2016-09-12T23:45:00Z,30.3836,-88.4364,0.57,13.6,1111122 
NERRS,ioos:station:NOAA.NERRS:gndbcwq:1,2016-09-13T00:45:00Z,30.3836,-88.4364,0.58,14.6,1111122 
NERRS,ioos:station:NOAA.NERRS:gndbcwq:1,2016-09-13T01:45:00Z,30.3836,-88.4364,0.67,13.6,1111122 
NERRS,ioos:station:NOAA.NERRS:gndbcwq:1,2016-09-13T02:45:00Z,30.3836,-88.4364,0.68,14.6,1111122 
NERRS,ioos:station:NOAA.NERRS:gndbcwq:1,2016-09-13T03:45:00Z,30.3836,-88.4364,0.71,16.7,1111122 
NERRS,ioos:station:NOAA.NERRS:gndbcwq:1,2016-09-13T04:45:00Z,30.3836,-88.4364,0.74,16.3,1111122 